Regional Weather Roundup
Issued by NWS

Home | Current Version | Previous Version | Graphics & Text | Print | Product List | Glossary On
Versions: 1 2 3 4 5 6 7 8 9 10 11 12 13 14 15 16 17 18 19 20 21 22 23 24 25 26 27 28 29 30 31 32 33 34 35 36 37 38 39 40 41 42
000
ASUS45 KTFX 162210
RWRMT
MONTANA REGIONAL WEATHER ROUNDUP
NATIONAL WEATHER SERVICE GREAT FALLS MT
300 PM MST MON JAN 16 2017

NOTE: "FAIR" INDICATES FEW OR NO CLOUDS BELOW 12000 FEET WITH NO
SIGNIFICANT WEATHER AND/OR OBSTRUCTIONS TO VISIBILITY.

MTZ001>007-043-162300-
WEST OF THE DIVIDE

CITY           SKY/WX    TMP DP  RH WIND       PRES   REMARKS
KALISPELL      LGT SNOW  13   9  84 CALM      30.30F
MISSOULA       MOSUNNY   11   2  67 CALM      30.30F
BUTTE          CLOUDY    15   5  64 CALM      30.15F
MULLAN PASS    MOSUNNY   26  17  68 VRB3      30.12S
ANACONDA         N/A     23   3  42 CALM      30.17F
DEER LODGE       N/A     16   3  57 SE5       30.22F
EUREKA           N/A     16   7  67 CALM      30.32S
HAMILTON         N/A     19   3  49 CALM      30.26F
RONAN            N/A     10   5  80 MISG      30.29F
THOMPSON FALLS   N/A     14   6  70 E10       30.33F WCI   1
$$

MTZ008-052>055-162300-
SOUTHWEST MONTANA

CITY           SKY/WX    TMP DP  RH WIND       PRES   REMARKS
BOZEMAN        CLOUDY    14   5  67 NE5       30.18S
DILLON         CLOUDY    34   6  31 SW7       30.16S WCI  28
W YELLOWSTONE  CLOUDY    12   7  79 NE3       30.16S
ENNIS          SUNNY     23  12  63 CALM      30.19R
TWIN BRIDGES     N/A     18   3  51 SE6       30.14F WCI  10
$$

MTZ009-010-012-014-046-048-049-054-162300-
EAST SLOPES AND CENTRAL MONTANA

CITY           SKY/WX    TMP DP  RH WIND       PRES   REMARKS
CUT BANK       CLOUDY    39  22  50 W23       29.91F WCI  28
GREAT FALLS    CLOUDY    34  20  56 S18       29.99F WCI  23
MALMSTROM AFB  CLOUDY    34  23  64 SW16      30.00F WCI  23
HELENA         CLOUDY    11   0  61 NW5       30.18F
AUGUSTA          N/A     38  21  50 W16       29.96F WCI  29
BOWMANS CRNR     N/A     27  16  63 S26       29.98F WCI  11
CHOTEAU          N/A     41  23  48 SW10      29.97F
CONRAD           N/A     27  22  81 S3        29.97S
FAIRFIELD        N/A     32  19  57 S20       29.96F WCI  20
POWER            N/A     31  21  65 S14       29.97F WCI  21
RAYNESFORD       N/A     39  16  39 CALM      30.00F
ULM              N/A     35  19  50 MISG      30.01F
$$

MTZ011-013-016-021-045-047-050-051-162300-
NORTH CENTRAL MONTANA

CITY           SKY/WX    TMP DP  RH WIND       PRES   REMARKS
HAVRE          CLOUDY    23  13  65 SW3       30.01F
LEWISTOWN      CLOUDY    32  14  47 CALM      30.00F
N BAR RANCH      N/A     34  16  47 S6        30.01R WCI  29
CHINOOK          N/A     21  10  63 E6        30.04F WCI  14
DENTON           N/A     26  17  67 S8        29.98F WCI  18
FORT BENTON      N/A     27  12  54 MISG      30.01F
GEYSER           N/A     35  14  41 SW7       29.99F WCI  30
GRASS RANGE      N/A     37  17  44 W12       29.97F WCI  29
JUDITH GAP       N/A     28  18  66 SW15      29.99F WCI  17
ROY              N/A     32  20  62 MISG      30.00S
STANFORD         N/A     32  18  55 W3        30.00S
WINIFRED         N/A     30  18  60 E5        30.00F
$$

MTZ017>020-022>027-061-062-162300-
NORTHEAST MONTANA

CITY           SKY/WX    TMP DP  RH WIND       PRES   REMARKS
GLASGOW        CLOUDY    17   9  70 CALM      30.08F HAZE
JORDAN           N/A     32  18  56 NW3       30.06F
SIDNEY         SUNNY     18  12  77 SW7       30.12R WCI   9
WOLF POINT     CLOUDY    18  10  71 W6        30.11F WCI  10
PLENTYWOOD       N/A     16  10  79 E3        30.07S
POPLAR           N/A     18  10  73 SW3       30.12S
$$

MTZ028>42-056>058-162300-
SOUTHCENTRAL AND SOUTHEAST MONTANA

CITY           SKY/WX    TMP DP  RH WIND       PRES   REMARKS
BAKER          CLOUDY    20  11  68 W7        30.09S WCI  11
BILLINGS       CLOUDY    27  12  53 SW16      30.07S WCI  15
LIVINGSTON     CLOUDY    30  12  47 W20       30.08F WCI  17
MILES CITY     SUNNY     16   5  62 SE7       30.11S WCI   6
BIG TIMBER     SUNNY     34  12  40 W26G35    30.04F WCI  21
FORSYTH          N/A     18   7  62 CALM      30.10S
HARLOWTON        N/A     33  14  45 W31G41    30.01F WCI  19
LAUREL           N/A     26  11  53 S18       30.05F WCI  13
$$

REGIONAL REPORTS...DAKOTAS

CITY           SKY/WX    TMP DP  RH WIND       PRES   REMARKS
WILLISTON      SUNNY     19  13  77 SW5       30.11R
MINOT          CLEAR     28  21  75 W7        30.03S WCI  21
DICKINSON      SUNNY     21  14  74 W12       30.04R WCI   9
BEACH            N/A     19  14  79 W10       30.11R WCI   8
CROSBY           N/A     18  14  86 S10       30.09S WCI   6
TIOGA            N/A     18  16  93 W8        30.08R WCI   7
WATFORD CITY     N/A     18  12  79 SW3       30.10R
BISMARCK       SUNNY     27  17  66 NW8       30.07R WCI  19
GRAND FORKS    CLOUDY    19  11  70 W6        30.04R WCI  11
FARGO          CLOUDY    19  11  70 SW3       30.04F
BUFFALO SD       N/A     25  16  68 NW15      30.01R WCI  13
RAPID CITY     SUNNY     33  19  56 N18       30.04S WCI  22
$$

REGIONAL REPORTS...WYOMING/IDAHO/WASHINGTON

CITY           SKY/WX    TMP DP  RH WIND       PRES   REMARKS
GILLETTE       SUNNY     32  16  51 W8        30.08F WCI  25
SHERIDAN       SUNNY     31  16  54 SW9       30.08F WCI  23
BUFFALO WY     SUNNY     32  11  41 CALM      30.08S
CODY           CLOUDY    31  12  45 CALM      30.08S
YELLOWSTONE LA   N/A      7  -1  70 CALM      30.15S
IDAHO FALLS    CLOUDY     3  -2  79 N9        30.30F WCI -12
SALMON         CLOUDY    -8 -15  71 CALM      30.46F
BOISE          SUNNY     13   6  74 VRB3      30.44S HAZE
SPOKANE        SNOW      16  13  88 NE7       30.31S VSB 1/4 WCI   6
$$

REGIONAL REPORTS...ALBERTA

CITY           SKY/WX    TMP DP  RH WIND       PRES   REMARKS
EDMONTON       MOCLDY    36  18  48 S6        29.64F WCI  31
CALGARY        CLOUDY    37  21  52 S7        29.79S
LETHBRIDGE     PTSUNNY   39  25  56 W26G32    29.86F WCI  28
MEDICINE HAT   PTSUNNY   36  21  55 SW13      29.88F WCI  27
WATERTON GATE    N/A     36  16  44 SW38G52     N/A  WCI  21
CARDSTON         N/A     43  19  39 W16G24      N/A
MILK RIVER       N/A     34  23  64 SW10        N/A  WCI  26
$$

REGIONAL REPORTS...SASKATCHEWAN

CITY           SKY/WX    TMP DP  RH WIND       PRES   REMARKS
SWIFT CURRENT  SUNNY     30  21  69 SW16      29.91F WCI  19
REGINA         PTCLDY    23  18  80 SE9       30.01F WCI  13
SASKATOON      MOCLDY    28  19  69 SW13      29.89F WCI  18
CYPRESS HILLS    N/A     28  10  47 SW8         N/A  WCI  20
VAL MARIE        N/A     18  10  73 S5          N/A
ASSINIBOIA       N/A     30  19  64 SW9         N/A  WCI  22
$$



USA.gov is the U.S. government's official web portal to all federal, state and local government web resources and services.